Location: ???? ??
(36.0534°N, 43.5630°E)
Time: 12:51:51
(UTC+00:00)

Cosmos 2218 Rocket - Pass Details

Date: 18 September 2019
Orbit: 956 x 1006 km, 82.9° (Epoch: 15 October)

Event Time Altitude Azimuth Distance (km) Brightness Sun altitude
Rises 17:00:16 0° 359° (N) 3,733 7.3 -22.8°
Reaches altitude 10° 17:02:55 10° 4° (N) 2,775 6.6 -23.3°
Maximum altitude 17:09:07 53° 80° (E) 1,210 4.1 -24.4°
Enters shadow 17:09:28 52° 92° (E) 1,218 4.1 -24.5°
